RYR8RC EGNT-EGCC

Flight info

Callsign RYR8RC
Flight time 0h 29m
Altitude 15000
Route DCT NATEB P18 GASKO/N0307F140 DCT SETEL SETEL1M
Aircraft B738/M-SDE2E3FGHIRWXY/LB1

Departure

Time 2026-05-05 18:06
Airport Newcastle International Airport (EGNT)

Arrival

Time 2026-05-05 18:36
Airport Manchester Airport (EGCC)
Time Latitude Longitude Altitude Speed Heading
2026-05-05 17:46 55.03745 -1.70760 265 ft 0 kts 184°
2026-05-05 17:57 55.03758 -1.70760 265 ft 2 kts 179°
2026-05-05 17:57 55.03774 -1.70761 265 ft 2 kts 173°
2026-05-05 17:58 55.03790 -1.70766 266 ft 2 kts 159°
2026-05-05 17:58 55.03804 -1.70780 266 ft 2 kts 129°
2026-05-05 17:58 55.03811 -1.70805 266 ft 2 kts 99°
2026-05-05 17:58 55.03812 -1.70820 266 ft 0 kts 93°
2026-05-05 18:03 55.03812 -1.70810 266 ft 3 kts 93°
2026-05-05 18:03 55.03810 -1.70741 266 ft 7 kts 93°
2026-05-05 18:03 55.03807 -1.70647 265 ft 8 kts 93°
2026-05-05 18:04 55.03803 -1.70529 264 ft 10 kts 92°
2026-05-05 18:04 55.03771 -1.70440 263 ft 9 kts 152°
2026-05-05 18:04 55.03641 -1.70454 262 ft 20 kts 201°
2026-05-05 18:04 55.03561 -1.70633 263 ft 16 kts 210°
2026-05-05 18:05 55.03495 -1.70647 262 ft 9 kts 179°
2026-05-05 18:05 55.03483 -1.70647 263 ft 0 kts 179°
2026-05-05 18:05 55.03455 -1.70647 263 ft 10 kts 179°
2026-05-05 18:05 55.03386 -1.70627 266 ft 12 kts 151°
2026-05-05 18:06 55.03375 -1.70549 266 ft 19 kts 63°
2026-05-05 18:06 55.03479 -1.70170 262 ft 84 kts 65°
2026-05-05 18:06 55.03997 -1.68171 526 ft 169 kts 66°
2026-05-05 18:06 55.04419 -1.66108 1510 ft 188 kts 75°
2026-05-05 18:07 55.04332 -1.63829 2537 ft 201 kts 109°
2026-05-05 18:07 55.03309 -1.61848 2957 ft 247 kts 144°
2026-05-05 18:07 55.01573 -1.60973 3565 ft 272 kts 177°
2026-05-05 18:07 54.99754 -1.61560 4554 ft 265 kts 204°
2026-05-05 18:08 54.98122 -1.62944 5526 ft 263 kts 209°
2026-05-05 18:08 54.96484 -1.64409 6505 ft 267 kts 210°
2026-05-05 18:08 54.94815 -1.65887 7468 ft 271 kts 210°
2026-05-05 18:08 54.93125 -1.67377 8466 ft 273 kts 210°
2026-05-05 18:09 54.91366 -1.68920 9035 ft 296 kts 209°
2026-05-05 18:09 54.89436 -1.70639 9202 ft 327 kts 210°
2026-05-05 18:09 54.87463 -1.72413 9889 ft 307 kts 210°
2026-05-05 18:09 54.85602 -1.74075 10338 ft 294 kts 210°
2026-05-05 18:10 54.83792 -1.75670 10805 ft 293 kts 209°
2026-05-05 18:10 54.81820 -1.76708 11221 ft 306 kts 191°
2026-05-05 18:10 54.79657 -1.77219 11800 ft 319 kts 192°
2026-05-05 18:10 54.77446 -1.77878 12655 ft 323 kts 194°
2026-05-05 18:11 54.75309 -1.78996 13672 ft 319 kts 207°
2026-05-05 18:11 54.73315 -1.80601 14614 ft 317 kts 209°
2026-05-05 18:11 54.71343 -1.82272 14963 ft 314 kts 210°
2026-05-05 18:11 54.69277 -1.83568 15038 ft 322 kts 189°
2026-05-05 18:12 54.67032 -1.83373 15087 ft 326 kts 177°
2026-05-05 18:12 54.64803 -1.83420 15066 ft 322 kts 195°
2026-05-05 18:12 54.62743 -1.84776 15081 ft 315 kts 212°
2026-05-05 18:12 54.60831 -1.86630 15077 ft 316 kts 213°
2026-05-05 18:13 54.58922 -1.88516 15067 ft 316 kts 213°
2026-05-05 18:13 54.57008 -1.90405 15069 ft 316 kts 213°
2026-05-05 18:13 54.55099 -1.92279 15071 ft 316 kts 213°
2026-05-05 18:13 54.53185 -1.94147 15061 ft 316 kts 213°
2026-05-05 18:14 54.51272 -1.96004 15062 ft 315 kts 212°
2026-05-05 18:14 54.49360 -1.97852 15064 ft 315 kts 212°
2026-05-05 18:14 54.47447 -1.99692 15053 ft 315 kts 212°
2026-05-05 18:14 54.45535 -2.01526 15077 ft 314 kts 212°
2026-05-05 18:15 54.43619 -2.03363 15061 ft 315 kts 212°
2026-05-05 18:15 54.41707 -2.05195 15052 ft 315 kts 213°
2026-05-05 18:15 54.39794 -2.07027 15059 ft 314 kts 212°
2026-05-05 18:15 54.37907 -2.08833 15059 ft 314 kts 212°
2026-05-05 18:16 54.35995 -2.10661 15072 ft 315 kts 213°
2026-05-05 18:16 54.34078 -2.12491 15060 ft 315 kts 212°
2026-05-05 18:16 54.32162 -2.14319 15042 ft 315 kts 212°
2026-05-05 18:16 54.30238 -2.16150 14982 ft 318 kts 213°
2026-05-05 18:17 54.28314 -2.17981 15030 ft 316 kts 213°
2026-05-05 18:17 54.26395 -2.19804 15035 ft 315 kts 213°
2026-05-05 18:17 54.24476 -2.21627 15022 ft 315 kts 212°
2026-05-05 18:17 54.22557 -2.23451 15033 ft 316 kts 212°
2026-05-05 18:18 54.20623 -2.25286 15031 ft 318 kts 212°
2026-05-05 18:18 54.18710 -2.27096 15021 ft 311 kts 212°
2026-05-05 18:18 54.16868 -2.28835 15019 ft 303 kts 212°
2026-05-05 18:18 54.15035 -2.30568 15021 ft 299 kts 212°
2026-05-05 18:19 54.13213 -2.32289 15029 ft 299 kts 212°
2026-05-05 18:19 54.11392 -2.34009 14929 ft 297 kts 212°
2026-05-05 18:19 54.09598 -2.35701 14734 ft 292 kts 212°
2026-05-05 18:19 54.07821 -2.37376 14399 ft 292 kts 212°
2026-05-05 18:20 54.06048 -2.39046 14087 ft 291 kts 212°
2026-05-05 18:20 54.04273 -2.40712 13760 ft 291 kts 212°
2026-05-05 18:20 54.02518 -2.42355 13329 ft 293 kts 211°
2026-05-05 18:20 54.00545 -2.43333 12892 ft 302 kts 185°
2026-05-05 18:21 53.98444 -2.43060 12590 ft 302 kts 174°
2026-05-05 18:21 53.96373 -2.42526 12262 ft 301 kts 174°
2026-05-05 18:21 53.94302 -2.41957 11916 ft 301 kts 173°
2026-05-05 18:21 53.92248 -2.41394 11631 ft 298 kts 173°
2026-05-05 18:22 53.90202 -2.40846 11320 ft 296 kts 173°
2026-05-05 18:22 53.88161 -2.40310 10952 ft 297 kts 174°
2026-05-05 18:22 53.86114 -2.39781 10629 ft 297 kts 173°
2026-05-05 18:22 53.84084 -2.39261 10371 ft 294 kts 174°
2026-05-05 18:23 53.82051 -2.38744 9986 ft 297 kts 174°
2026-05-05 18:23 53.80037 -2.38234 9677 ft 295 kts 173°
2026-05-05 18:23 53.78029 -2.37726 9426 ft 288 kts 173°
2026-05-05 18:23 53.76066 -2.37230 8972 ft 284 kts 174°
2026-05-05 18:24 53.74106 -2.36735 8429 ft 284 kts 173°
2026-05-05 18:24 53.72183 -2.36252 8089 ft 276 kts 173°
2026-05-05 18:24 53.70271 -2.35773 7625 ft 279 kts 172°
2026-05-05 18:24 53.68362 -2.35294 7467 ft 272 kts 172°
2026-05-05 18:25 53.66524 -2.35043 7201 ft 261 kts 189°
2026-05-05 18:25 53.65365 -2.35444 7025 ft 254 kts 195°
2026-05-05 18:25 53.63075 -2.36468 6694 ft 254 kts 196°
2026-05-05 18:25 53.61374 -2.37231 6538 ft 253 kts 195°
2026-05-05 18:26 53.59698 -2.37976 6381 ft 252 kts 195°
2026-05-05 18:26 53.58004 -2.38721 6197 ft 252 kts 195°
2026-05-05 18:26 53.56303 -2.39463 6019 ft 250 kts 194°
2026-05-05 18:26 53.54624 -2.40192 5868 ft 249 kts 194°
2026-05-05 18:27 53.52954 -2.40916 5726 ft 246 kts 194°
2026-05-05 18:27 53.51301 -2.41630 5550 ft 248 kts 194°
2026-05-05 18:27 53.49617 -2.42355 5397 ft 250 kts 194°
2026-05-05 18:27 53.47937 -2.43077 5255 ft 250 kts 194°
2026-05-05 18:28 53.44569 -2.44522 4954 ft 247 kts 194°
2026-05-05 18:28 53.42906 -2.45233 4806 ft 248 kts 194°
2026-05-05 18:28 53.41219 -2.45955 4592 ft 251 kts 194°
2026-05-05 18:29 53.39556 -2.46666 4403 ft 247 kts 193°
2026-05-05 18:29 53.37900 -2.47373 4245 ft 244 kts 193°
2026-05-05 18:29 53.36264 -2.48071 4093 ft 239 kts 193°
2026-05-05 18:29 53.34677 -2.48747 3939 ft 233 kts 193°
2026-05-05 18:30 53.33129 -2.49406 3801 ft 225 kts 193°
2026-05-05 18:30 53.31654 -2.50036 3673 ft 212 kts 192°
2026-05-05 18:30 53.30265 -2.50627 3549 ft 200 kts 192°
2026-05-05 18:30 53.28959 -2.51182 3407 ft 188 kts 191°
2026-05-05 18:31 53.27720 -2.51709 3280 ft 182 kts 191°
2026-05-05 18:31 53.26488 -2.52232 3183 ft 184 kts 191°
2026-05-05 18:31 53.25241 -2.52515 3026 ft 178 kts 162°
2026-05-05 18:31 53.24342 -2.51399 3011 ft 161 kts 112°
2026-05-05 18:32 53.24342 -2.49638 2988 ft 156 kts 58°
2026-05-05 18:32 53.25076 -2.48261 2836 ft 162 kts 50°
2026-05-05 18:32 53.25766 -2.46841 2619 ft 151 kts 52°
2026-05-05 18:32 53.26400 -2.45499 2455 ft 142 kts 52°
2026-05-05 18:33 53.27015 -2.44197 2247 ft 142 kts 52°
2026-05-05 18:33 53.27624 -2.42909 2037 ft 142 kts 52°
2026-05-05 18:33 53.28236 -2.41615 1852 ft 142 kts 51°
2026-05-05 18:33 53.28841 -2.40336 1651 ft 138 kts 51°
2026-05-05 18:34 53.29429 -2.39096 1460 ft 134 kts 52°
2026-05-05 18:34 53.30020 -2.37847 1280 ft 139 kts 51°
2026-05-05 18:34 53.30637 -2.36552 1060 ft 144 kts 51°
2026-05-05 18:34 53.31265 -2.35208 843 ft 147 kts 52°
2026-05-05 18:35 53.31890 -2.33851 696 ft 145 kts 52°
2026-05-05 18:35 53.32483 -2.32543 484 ft 142 kts 53°
2026-05-05 18:35 53.33090 -2.31274 298 ft 138 kts 51°
2026-05-05 18:35 53.33667 -2.30095 240 ft 119 kts 51°
2026-05-05 18:36 53.34092 -2.29212 246 ft 76 kts 51°
2026-05-05 18:36 53.34326 -2.28746 250 ft 37 kts 43°
2026-05-05 18:36 53.34522 -2.28526 256 ft 32 kts 21°
2026-05-05 18:36 53.34688 -2.28416 259 ft 23 kts 37°
2026-05-05 18:37 53.34795 -2.28227 259 ft 22 kts 49°
2026-05-05 18:37 53.34891 -2.28030 259 ft 22 kts 51°
2026-05-05 18:37 53.34985 -2.27838 258 ft 21 kts 51°
2026-05-05 18:37 53.35074 -2.27649 259 ft 21 kts 52°
2026-05-05 18:38 53.35171 -2.27450 258 ft 25 kts 51°
2026-05-05 18:38 53.35298 -2.27185 251 ft 32 kts 51°
2026-05-05 18:38 53.35415 -2.26943 243 ft 14 kts 48°
2026-05-05 18:38 53.35471 -2.26900 241 ft 0 kts 356°
2026-05-05 18:39 53.35472 -2.26900 240 ft 0 kts 355°
2026-05-05 18:40 53.35479 -2.26903 240 ft 6 kts 345°
2026-05-05 18:40 53.35573 -2.27019 238 ft 25 kts 320°
2026-05-05 18:40 53.35700 -2.27188 239 ft 12 kts 321°
2026-05-05 18:40 53.35706 -2.27196 239 ft 0 kts 321°
2026-05-05 18:42 53.35716 -2.27210 240 ft 1 kts 320°
2026-05-05 18:42 53.35735 -2.27213 240 ft 6 kts 38°
2026-05-05 18:42 53.35822 -2.27163 239 ft 17 kts 331°
2026-05-05 18:42 53.35900 -2.27168 239 ft 12 kts 50°
2026-05-05 18:43 53.35911 -2.27136 238 ft 0 kts 65°